Location: Ajisawe
(8.4333°N, 4.3833°E)
Time: 12:36:41
(UTC+00:00)

Courier 1B Rocket - Pass Details

Date: 02 May 2021
Orbit: 920 x 1202 km, 28.2° (Epoch: 07 May)

Event Time Altitude Azimuth Distance (km) Brightness Sun altitude
Rises 14:11:45 0° 285° (WNW) 3,650 8.6 52.1°
Reaches altitude 10° 14:15:27 10° 305° (NW) 2,660 8.1 51.3°
Maximum altitude 14:19:28 17° 344° (NNW) 2,153 7.3 50.3°
Drops below altitude 10° 14:23:25 10° 24° (NNE) 2,604 7.3 49.3°
Sets 14:27:00 0° 44° (NE) 3,541 7.7 48.5°
